�������l�o���
Date,Time,MP-1(��Sv/h),MP-2(��Sv/h),MP-3(��Sv/h),MP-4(��Sv/h),MP-5(��Sv/h),MP-6(��Sv/h),MP-7(��Sv/h),MP-8(��Sv/h),����,����(m/s),���J
2016/10/04,00:00,1.143,1.890,1.353,2.063,1.454,0.604,1.064,0.983,�쐼,1.9,��
2016/10/04,00:10,1.139,1.890,1.354,2.062,1.454,0.605,1.065,0.984,��쐼,1.6,��
2016/10/04,00:20,1.139,1.889,1.352,2.064,1.453,0.604,1.067,0.983,�쐼,1.8,��
2016/10/04,00:30,1.137,1.889,1.352,2.062,1.456,0.602,1.063,0.983,���쐼,2.3,��
2016/10/04,00:40,1.140,1.888,1.352,2.063,1.452,0.605,1.065,0.983,���쐼,2.3,��
2016/10/04,00:50,1.139,1.889,1.352,2.062,1.454,0.603,1.065,0.984,��,4.1,��
2016/10/04,01:00,1.141,1.888,1.356,2.064,1.454,0.604,1.067,0.983,��,3.6,��
2016/10/04,01:10,1.142,1.888,1.352,2.064,1.453,0.604,1.064,0.983,�k��,2.9,��
2016/10/04,01:20,1.142,1.890,1.353,2.061,1.454,0.605,1.066,0.984,���k��,1.5,��
2016/10/04,01:30,1.141,1.888,1.354,2.063,1.455,0.604,1.066,0.983,�k��,1.8,��
2016/10/04,01:40,1.139,1.887,1.353,2.063,1.455,0.604,1.064,0.983,�k�k��,2.6,��
2016/10/04,01:50,1.140,1.890,1.354,2.064,1.454,0.606,1.065,0.982,�k��,2.4,��
2016/10/04,02:00,1.142,1.886,1.351,2.063,1.452,0.604,1.064,0.985,���k��,1.9,��
2016/10/04,02:10,1.141,1.890,1.353,2.063,1.454,0.604,1.065,0.986,��,1.3,��
2016/10/04,02:20,1.141,1.890,1.353,2.063,1.455,0.604,1.066,0.984,�k��,1.5,��
2016/10/04,02:30,1.142,1.888,1.354,2.064,1.454,0.604,1.065,0.985,��,1.7,��
2016/10/04,02:40,1.142,1.889,1.356,2.066,1.454,0.603,1.066,0.985,�k��,3.3,��
2016/10/04,02:50,1.142,1.891,1.356,2.063,1.456,0.604,1.065,0.983,��,1.9,��
2016/10/04,03:00,1.141,1.891,1.356,2.065,1.452,0.605,1.068,0.984,���k��,2.8,��
2016/10/04,03:10,1.142,1.890,1.355,2.066,1.454,0.604,1.068,0.983,���k��,1.9,��
2016/10/04,03:20,1.140,1.891,1.357,2.064,1.455,0.604,1.065,0.983,�쐼,1.3,��
2016/10/04,03:30,1.141,1.889,1.357,2.068,1.456,0.604,1.066,0.983,�쐼,2.9,��
2016/10/04,03:40,1.144,1.889,1.358,2.068,1.454,0.606,1.067,0.983,�쐼,3.8,��
2016/10/04,03:50,1.144,1.891,1.354,2.063,1.454,0.604,1.068,0.986,���쐼,3.8,��
2016/10/04,04:00,1.142,1.892,1.355,2.067,1.457,0.605,1.068,0.985,��,3.9,��
2016/10/04,04:10,1.141,1.893,1.357,2.068,1.455,0.604,1.066,0.986,���k��,2.7,��
2016/10/04,04:20,1.141,1.892,1.356,2.065,1.455,0.606,1.067,0.986,��,1.4,��
2016/10/04,04:30,1.142,1.892,1.357,2.068,1.454,0.604,1.068,0.985,��,2.9,��
2016/10/04,04:40,1.142,1.892,1.356,2.070,1.455,0.604,1.067,0.985,���쐼,3.0,��
2016/10/04,04:50,1.141,1.893,1.355,2.066,1.450,0.602,1.066,0.985,���쐼,4.1,��
2016/10/04,05:00,1.142,1.894,1.358,2.069,1.455,0.603,1.068,0.984,��,5.5,��
2016/10/04,05:10,1.142,1.890,1.357,2.068,1.456,0.604,1.068,0.984,��,5.8,��
2016/10/04,05:20,1.139,1.892,1.356,2.069,1.454,0.604,1.067,0.987,��,5.8,��
2016/10/04,05:30,1.140,1.892,1.356,2.070,1.454,0.605,1.067,0.985,��,5.8,��
2016/10/04,05:40,1.143,1.893,1.355,2.068,1.455,0.602,1.066,0.985,���k��,4.9,��
2016/10/04,05:50,1.140,1.895,1.358,2.073,1.453,0.605,1.066,0.984,��,5.2,��
2016/10/04,06:00,1.142,1.889,1.358,2.072,1.457,0.602,1.068,0.985,���k��,7.4,��
2016/10/04,06:10,1.142,1.891,1.357,2.070,1.455,0.604,1.067,0.985,���k��,8.2,��
2016/10/04,06:20,1.141,1.891,1.357,2.070,1.455,0.604,1.069,0.985,���k��,5.5,��
2016/10/04,06:30,1.141,1.894,1.357,2.069,1.455,0.603,1.065,0.984,��,5.5,��
2016/10/04,06:40,1.142,1.894,1.354,2.069,1.454,0.603,1.065,0.985,��,6.1,��
2016/10/04,06:50,1.140,1.894,1.355,2.070,1.453,0.604,1.066,0.984,���k��,7.1,��
2016/10/04,07:00,1.141,1.894,1.358,2.070,1.455,0.604,1.065,0.984,���k��,8.6,��
2016/10/04,07:10,1.141,1.891,1.356,2.070,1.458,0.604,1.067,0.987,�k��,6.9,��
2016/10/04,07:20,1.143,1.894,1.357,2.072,1.456,0.601,1.067,0.985,�k��,7.8,��
2016/10/04,07:30,1.139,1.895,1.354,2.071,1.457,0.603,1.067,0.985,�k��,5.0,��
2016/10/04,07:40,1.143,1.893,1.359,2.071,1.456,0.602,1.066,0.984,�k�k��,5.8,��
2016/10/04,07:50,1.139,1.893,1.355,2.073,1.455,0.604,1.065,0.983,�k�k��,4.4,��
2016/10/04,08:00,1.140,1.895,1.356,2.072,1.457,0.603,1.067,0.986,�k�k��,3.1,��
2016/10/04,08:10,1.142,1.887,1.355,2.075,1.457,0.604,1.066,0.986,�k,2.9,��
2016/10/04,08:20,1.142,1.892,1.359,2.072,1.457,0.602,1.068,0.982,�k,2.9,��
2016/10/04,08:30,1.141,1.892,1.356,2.072,1.456,0.603,1.066,0.984,�k,3.8,��
2016/10/04,08:40,1.143,1.893,1.356,2.076,1.456,0.603,1.066,0.983,�k��,2.2,��
2016/10/04,08:50,1.143,1.893,1.358,2.075,1.456,0.604,1.067,0.981,�k��,3.5,��
2016/10/04,09:00,1.144,1.895,1.360,2.074,1.457,0.603,1.067,0.982,�k��,3.8,��
2016/10/04,09:10,1.142,1.892,1.356,2.073,1.459,0.605,1.068,0.983,���k��,3.1,��
2016/10/04,09:20,1.142,1.897,1.358,2.077,1.456,0.603,1.069,0.982,�k�k��,3.4,��
2016/10/04,09:30,1.142,1.895,1.332,2.073,1.456,0.603,1.067,0.983,�k�k��,1.6,��
2016/10/04,09:40,1.145,1.898,1.323,2.077,1.456,0.601,1.068,0.983,�k��,0.7,��
2016/10/04,09:50,1.143,1.898,1.361,2.073,1.460,0.602,1.069,0.982,-,CALM,��
2016/10/04,10:00,1.145,1.900,1.362,2.073,1.460,0.602,1.069,0.982,�쓌,1.5,��
2016/10/04,10:10,1.143,1.902,1.359,2.076,1.462,0.601,1.068,0.985,��,1.8,��
2016/10/04,10:20,1.141,1.900,1.362,2.078,1.462,0.605,1.069,0.983,��쐼,0.9,��
2016/10/04,10:30,1.144,1.897,1.360,2.078,1.464,0.605,1.069,0.982,�쓌,1.9,��
2016/10/04,10:40,1.145,1.897,1.361,2.077,1.460,0.598,1.068,0.983,���쓌,1.8,��
2016/10/04,10:50,1.142,1.898,1.360,2.081,1.461,0.605,1.069,0.983,�쓌,3.4,��
2016/10/04,11:00,1.145,1.901,1.362,2.076,1.462,0.590,1.068,0.984,�쓌,3.3,��
2016/10/04,11:10,1.144,1.901,1.362,2.078,1.460,0.603,1.066,0.983,�쓌,2.7,��
2016/10/04,11:20,1.143,1.899,1.363,2.080,1.460,0.603,1.069,0.985,��,1.2,��
2016/10/04,11:30,1.144,1.899,1.363,2.078,1.463,0.606,1.070,0.984,��,3.1,��
2016/10/04,11:40,1.146,1.899,1.363,2.079,1.466,0.606,1.069,0.985,��,4.2,��
2016/10/04,11:50,1.148,1.902,1.364,2.077,1.465,0.606,1.069,0.985,��,4.9,��
2016/10/04,12:00,1.147,1.901,1.362,2.081,1.467,0.604,1.070,0.985,��,5.8,��
2016/10/04,12:10,1.146,1.904,1.361,2.080,1.466,0.605,1.068,0.986,��,4.1,��
2016/10/04,12:20,1.145,1.905,1.359,2.080,1.464,0.605,1.069,0.983,��,6.1,��
2016/10/04,12:30,1.148,1.908,1.358,2.081,1.465,0.605,1.069,0.982,���쐼,5.5,��
2016/10/04,12:40,1.148,1.906,1.350,2.084,1.465,0.608,1.069,0.984,���k��,6.1,��
2016/10/04,12:50,1.151,1.908,1.347,2.082,1.466,0.605,1.069,0.984,��,6.3,��
2016/10/04,13:00,1.150,1.909,1.356,2.082,1.468,0.606,1.068,0.983,��,7.5,��
2016/10/04,13:10,1.148,1.902,1.356,2.083,1.469,0.606,1.071,0.983,��,6.1,��
2016/10/04,13:20,1.152,1.904,1.357,2.085,1.467,0.606,1.070,0.983,�k,3.2,��
2016/10/04,13:30,1.150,1.901,1.359,2.085,1.471,0.605,1.069,0.984,�k�k��,5.2,�L
2016/10/04,13:40,1.150,1.902,1.356,2.082,1.467,0.606,1.069,0.985,�k��,3.9,��
2016/10/04,13:50,1.148,1.908,1.358,2.085,1.467,0.608,1.069,0.985,�k��,2.7,��
2016/10/04,14:00,1.151,1.904,1.359,2.084,1.469,0.606,1.070,0.986,�k�k��,1.5,��
2016/10/04,14:10,1.148,1.907,1.358,2.085,1.469,0.604,1.069,0.986,�k��,0.6,��
2016/10/04,14:20,1.148,1.907,1.360,2.087,1.470,0.606,1.067,0.986,���쐼,0.8,��
2016/10/04,14:30,1.149,1.912,1.358,2.084,1.467,0.607,1.070,0.985,�쓌,1.1,��
2016/10/04,14:40,1.148,1.909,1.355,2.085,1.468,0.608,1.070,0.987,�쓌,1.9,��
2016/10/04,14:50,1.153,1.909,1.357,2.083,1.471,0.607,1.068,0.988,��,1.3,��
2016/10/04,15:00,1.150,1.905,1.347,2.085,1.469,0.607,1.069,0.986,��,1.5,��
2016/10/04,15:10,1.149,1.908,1.354,2.088,1.469,0.606,1.070,0.986,���쐼,0.5,��
2016/10/04,15:20,1.152,1.909,1.361,2.086,1.469,0.605,1.071,0.987,�k��,1.3,��
2016/10/04,15:30,1.151,1.908,1.362,2.083,1.468,0.607,1.071,0.987,�k��,3.8,��
2016/10/04,15:40,1.151,1.903,1.362,2.084,1.468,0.608,1.073,0.985,�k��,4.1,��
2016/10/04,15:50,1.148,1.905,1.362,2.084,1.469,0.607,1.072,0.984,�k��,3.8,��
2016/10/04,16:00,1.152,1.909,1.361,2.082,1.470,0.606,1.070,0.987,�k��,4.3,��
2016/10/04,16:10,1.151,1.910,1.361,2.084,1.468,0.605,1.072,0.985,�k��,2.8,��
2016/10/04,16:20,1.149,1.907,1.363,2.085,1.472,0.601,1.071,0.987,�k��,3.4,��
2016/10/04,16:30,1.151,1.909,1.363,2.087,1.470,0.605,1.070,0.985,���k��,4.1,��
2016/10/04,16:40,1.151,1.912,1.362,2.088,1.470,0.607,1.073,0.986,���k��,5.5,��
2016/10/04,16:50,1.149,1.910,1.362,2.090,1.469,0.606,1.071,0.986,���k��,5.6,��
2016/10/04,17:00,1.149,1.910,1.362,2.090,1.469,0.607,1.069,0.986,���k��,6.3,��
2016/10/04,17:10,1.148,1.909,1.360,2.086,1.467,0.604,1.070,0.987,���k��,6.3,��
2016/10/04,17:20,1.147,1.911,1.361,2.088,1.469,0.602,1.069,0.989,���k��,5.8,��
2016/10/04,17:30,1.149,1.913,1.361,2.081,1.467,0.605,1.072,0.986,���k��,5.5,��
2016/10/04,17:40,1.148,1.913,1.362,2.084,1.469,0.605,1.070,0.986,��,4.7,��
2016/10/04,17:50,1.150,1.908,1.358,2.088,1.467,0.605,1.069,0.986,��,5.5,��
2016/10/04,18:00,1.151,1.910,1.361,2.082,1.466,0.606,1.069,0.986,��,4.6,��
2016/10/04,18:10,1.148,1.911,1.357,2.086,1.469,0.605,1.069,0.986,��,4.2,��
2016/10/04,18:20,1.150,1.912,1.361,2.082,1.468,0.606,1.071,0.987,��,5.5,��
2016/10/04,18:30,1.149,1.909,1.360,2.086,1.466,0.604,1.070,0.986,��,6.7,��
2016/10/04,18:40,1.148,1.907,1.360,2.085,1.470,0.605,1.070,0.987,��,6.6,��
2016/10/04,18:50,1.148,1.910,1.359,2.085,1.469,0.605,1.069,0.986,���k��,6.9,��
2016/10/04,19:00,1.150,1.908,1.358,2.085,1.464,0.603,1.071,0.986,���k��,5.3,��
2016/10/04,19:10,1.148,1.908,1.357,2.081,1.468,0.604,1.072,0.986,���k��,5.5,��
2016/10/04,19:20,1.149,1.912,1.358,2.085,1.466,0.603,1.071,0.986,��,8.2,��
2016/10/04,19:30,1.150,1.910,1.359,2.081,1.466,0.604,1.070,0.985,���k��,8.3,��
2016/10/04,19:40,1.147,1.911,1.358,2.085,1.467,0.604,1.071,0.986,��,6.6,��
2016/10/04,19:50,1.147,1.913,1.360,2.084,1.467,0.606,1.071,0.986,���k��,7.7,��
2016/10/04,20:00,1.148,1.911,1.362,2.086,1.465,0.605,1.069,0.985,��,7.1,��
2016/10/04,20:10,1.144,1.910,1.361,2.088,1.467,0.604,1.070,0.986,��,5.8,��
2016/10/04,20:20,1.148,1.911,1.360,2.087,1.467,0.604,1.071,0.985,��,5.8,��
2016/10/04,20:30,1.146,1.910,1.359,2.086,1.468,0.604,1.068,0.986,��,8.3,��
2016/10/04,20:40,1.148,1.910,1.360,2.088,1.468,0.603,1.070,0.986,��,9.3,��
2016/10/04,20:50,1.147,1.908,1.360,2.086,1.466,0.603,1.068,0.987,���k��,6.6,��
2016/10/04,21:00,1.146,1.910,1.360,2.085,1.466,0.602,1.070,0.985,���k��,5.6,��
2016/10/04,21:10,1.144,1.913,1.361,2.087,1.468,0.606,1.070,0.986,���k��,4.5,��
2016/10/04,21:20,1.145,1.909,1.358,2.087,1.464,0.602,1.068,0.987,�k��,4.9,��
2016/10/04,21:30,1.146,1.909,1.358,2.085,1.465,0.602,1.069,0.987,�k��,4.4,��
2016/10/04,21:40,1.148,1.910,1.358,2.086,1.466,0.603,1.070,0.984,���k��,5.6,��
2016/10/04,21:50,1.146,1.910,1.358,2.085,1.466,0.604,1.070,0.985,���k��,6.6,��
2016/10/04,22:00,1.147,1.910,1.356,2.085,1.464,0.604,1.071,0.988,���k��,6.3,��
2016/10/04,22:10,1.147,1.907,1.358,2.085,1.465,0.604,1.069,0.985,���k��,6.6,��
2016/10/04,22:20,1.145,1.912,1.358,2.085,1.464,0.603,1.069,0.986,���k��,7.7,��
2016/10/04,22:30,1.145,1.907,1.359,2.087,1.468,0.603,1.072,0.986,�k��,9.1,��
2016/10/04,22:40,1.147,1.908,1.360,2.087,1.465,0.605,1.070,0.986,�k��,7.1,��
2016/10/04,22:50,1.145,1.909,1.359,2.087,1.466,0.604,1.069,0.984,���k��,3.4,��
2016/10/04,23:00,1.147,1.907,1.360,2.085,1.467,0.603,1.071,0.985,���k��,3.0,��
2016/10/04,23:10,1.148,1.910,1.360,2.086,1.467,0.604,1.069,0.985,���k��,3.0,��
2016/10/04,23:20,1.146,1.909,1.358,2.083,1.465,0.603,1.070,0.987,���k��,3.2,��
2016/10/04,23:30,1.148,1.911,1.356,2.085,1.465,0.605,1.071,0.985,�k��,4.1,��
2016/10/04,23:40,1.149,1.909,1.359,2.086,1.464,0.601,1.071,0.987,�k��,4.2,��
2016/10/04,23:50,1.145,1.907,1.357,2.086,1.468,0.604,1.068,0.987,�k��,5.5,��
